Location: Berbisdorf
(50.7638°N, 12.9442°E)
Time: 13:24:54
(UTC+00:00)

STARLINK-1317 - Pass Details

Date: 05 October 2020
Orbit: 549 x 550 km, 53.0° (Epoch: 27 October)

Event Time Altitude Azimuth Distance (km) Brightness Sun altitude
Exits shadow 04:02:48 - 215° (SW) 1,940 6.0 -12.3°
Reaches altitude 10° 04:03:08 10° 214° (SW) 1,817 5.9 -12.2°
Maximum altitude 04:06:59 39° 145° (SE) 839 4.8 -11.6°
Drops below altitude 10° 04:10:50 10° 77° (ENE) 1,826 7.8 -11.0°
Sets 04:13:10 0° 69° (ENE) 2,722 8.9 -10.7°
